Home > Weather > Löhne > Past weeks

Flag for Germany Past Weather in Löhne, North Rhine-Westphalia, Germany — Yesterday and Last 2 Weeks

Now
54 °F

Passing clouds.


Feels Like: 54 °F
Forecast: 51 / 79 °F
Wind: 2 mph from South

Location: Bueckeburg

Current Time: Aug 30, 2016 at 3:41:48 AM

Latest Report: Aug 30, 2016 at 2:20 AM


Visibility: N/A

Pressure: 30.24 "Hg

Humidity: 94%

Dew Point: 52 °F

Location of LöhneLocation

Past Weather in Löhne — Graph

°F

Löhne Temperature Yesterday

Maximum temperature yesterday: 73 °F (at 2:20 PM)
Minimum temperature yesterday: 55 °F (at 10:20 PM)
Average temperature yesterday: 65 °F

High & Low Weather Summary for the Past Weeks

 TemperatureHumidityPressure
High93 °F (Aug 26, 4:20 PM)100% (Aug 16, 4:20 AM)30.33 "Hg (Aug 16, 4:20 AM)
Low46 °F (Aug 17, 5:01 AM)23% (Aug 25, 5:20 PM)29.80 "Hg (Aug 18, 2:20 PM)
Average68 °F67%30.05 "Hg
* Reported Aug 15 2:20 AM — Aug 30 2:20 AM, Löhne, Weather by CustomWeather, © 2016

Note: Actual official high and low records may vary slightly from our data, if they occured in-between our weather recording intervals... More about our weather records

Advertising

Löhne Weather History for the Previous 24 Hours

Scroll right to see more
 ConditionsComfort  
Time TempWeatherWind HumidityBarometerVisibility
2:20 AM
Tue, Aug 30
54 °FPassing clouds.2 mph94%30.24 "HgN/A
1:20 AM55 °FPassing clouds.3 mph88%30.24 "HgN/A
12:20 AM54 °FPassing clouds.2 mph94%30.24 "HgN/A
11:20 PM
Mon, Aug 29
55 °FPassing clouds.2 mph94%30.21 "HgN/A
10:20 PM55 °FPassing clouds.2 mph88%30.21 "HgN/A
9:20 PM61 °FPassing clouds.3 mph77%30.18 "HgN/A
8:20 PM63 °FScattered clouds.5 mph73%30.15 "HgN/A
7:20 PM64 °FScattered clouds.8 mph68%30.12 "HgN/A
6:20 PM66 °FBroken clouds.14 mph68%30.12 "HgN/A
5:20 PM66 °FBroken clouds.12 mph68%30.09 "HgN/A
4:20 PM72 °FBroken clouds.15 mph50%30.09 "HgN/A
3:20 PM70 °FScattered clouds.17 mph60%30.07 "HgN/A
2:20 PM73 °FScattered clouds.16 mph50%30.07 "HgN/A
1:20 PM72 °FPartly sunny.15 mph53%30.04 "HgN/A
12:20 PM68 °FBroken clouds.12 mph69%30.04 "HgN/A
11:20 AM68 °FScattered showers. Scattered clouds.15 mph69%30.04 "HgN/A
10:20 AM66 °FPartly sunny.14 mph78%30.01 "HgN/A
9:20 AM64 °FBroken clouds.14 mph83%30.01 "HgN/A
8:20 AM64 °FPartly sunny.13 mph78%29.98 "HgN/A
7:20 AM64 °FPassing clouds.13 mph78%29.98 "HgN/A
6:20 AM64 °FPartly cloudy.10 mph78%29.95 "HgN/A
5:20 AM63 °FPassing clouds.12 mph83%29.95 "HgN/A
4:20 AM63 °FPassing clouds.9 mph77%29.95 "HgN/A
3:20 AM64 °FPassing clouds.10 mph78%29.95 "HgN/A
Weather by CustomWeather, © 2016

See weather overviewHow to use our weather pages